[[{"header":{"parameterUnit":"m.s-1","parameterCategory":1,"la1":30.2991,"la2":30.254,"lo1":-89.0895,"lo2":-89.0444,"dy":0.0017,"dx":0.0017,"nx":28,"ny":28,"refTime":"2024-05-11T03:00:00:Z","depth":0,"parameterNumber":2,"parameterNumberName":"U-component_of_WINDS"},"data":[0,0,0,0,0,0,0,0,0,0,0,0,0,0,0,0,0,0,0,0,0,0,0,0,0,0,0,0,0,0,0,0,0,0,0,0,0,0,0,0,0,0,0,0,0,0,0,0,0,0,0,0,0,0,0,0,0,0,-3.2741,-3.274,0,-3.2716,-3.2716,-3.2716,-3.2627,-3.2625,-3.2623,-3.2621,-3.2598,-3.2599,-3.26,0,0,0,0,0,0,0,0,0,0,0,0,0,-3.2713,-3.2714,-3.2741,-3.274,-3.274,-3.2716,-3.2716,-3.2716,-3.2628,-3.2625,-3.2623,-3.262,-3.2598,-3.2599,-3.2601,0,0,0,0,0,0,0,0,0,0,0,0,0,-3.2711,-3.2714,-3.2741,-3.2693,-3.2689,-3.2716,-3.2716,-3.2715,-3.2628,-3.2625,-3.2622,-3.2619,-3.2597,-3.2599,-3.2601,-3.2673,0,0,-3.2606,-3.2607,0,0,0,0,0,0,0,0,-3.2711,-3.2712,-3.2701,-3.2697,-3.2692,-3.2672,-3.2697,-3.2701,-3.2629,-3.2651,-3.2621,-3.2618,-3.2625,-3.2624,-3.2626,-3.2671,-3.267,-3.2607,-3.2608,-3.2609,-3.2609,0,0,0,0,0,0,0,-3.2711,-3.2712,-3.2731,-3.2701,-3.2695,-3.2674,-3.267,-3.2698,-3.2655,-3.2649,-3.2643,-3.2641,-3.2622,-3.2625,-3.2625,-3.267,-3.2607,-3.2608,-3.2609,-3.261,-3.2774,-3.2777,0,0,0,0,0,0,-3.2718,-3.2713,-3.2732,-3.273,-3.2694,-3.2677,-3.2673,-3.2681,-3.2655,-3.2648,-3.2643,-3.2637,-3.2623,-3.2623,-3.2624,-3.2707,-3.2609,-3.261,-3.2611,-3.2771,-3.2775,-3.2778,0,0,0,0,0,0,-3.2717,-3.272,-3.2733,-3.272,-3.272,-3.268,-3.2691,-3.2682,-3.2685,-3.265,-3.2643,-3.2654,-3.2621,-3.2621,-3.2661,-3.2705,-3.2611,-3.2613,-3.2767,-3.2772,-3.2776,-3.2874,0,0,0,0,0,0,-3.2717,-3.2721,-3.2747,-3.2721,-3.2721,-3.277,-3.2693,-3.2684,-3.2688,-3.2679,-3.2658,-3.2652,-3.2618,-3.2659,-3.2663,-3.2706,-3.2614,-3.2763,-3.2769,-3.2775,-3.2867,-3.2882,-3.2894,0,0,0,0,0,-3.2716,-3.2776,-3.2749,-3.2752,-3.2753,-3.2773,-3.2773,-3.2732,-3.2692,-3.2719,-3.2697,-3.2653,-3.27,-3.2664,-3.2668,-3.2712,-3.276,-3.2767,-3.2774,-3.2861,-3.2879,-3.2894,0,0,0,0,0,0,-3.2809,-3.2772,-3.2741,-3.2794,-3.2787,-3.2758,-3.279,-3.2753,-3.2758,-3.2749,-3.2699,-3.2695,-3.2743,-3.2731,-3.2692,-3.2781,-3.2722,-3.2731,-3.2787,-3.2804,-3.2817,-3.282,-3.2616,0,0,0,0,0,-3.2835,-3.2854,-3.282,-3.287,-3.2868,-3.283,-3.2837,-3.2807,-3.2798,-3.2795,-3.2775,-3.2769,-3.2782,-3.2792,-3.2802,-3.2864,-3.2859,-3.2897,-3.2911,-3.2922,-3.293,-3.2963,-3.298,-3.2802,-3.2802,-3.2802,0,0,-3.289,-3.2872,-3.2887,-3.2888,-3.2879,-3.2901,-3.2828,-3.2853,-3.2869,-3.2798,-3.2835,-3.2821,-3.281,-3.2862,-3.2884,-3.2854,-3.2978,-3.2931,-3.2941,-3.2943,-3.2973,-3.2989,-3.3005,-3.2807,-3.2806,-3.2805,0,0,-3.3001,-3.2989,-3.303,-3.3022,-3.3009,-3.2984,-3.2994,-3.297,-3.2958,-3.2993,-3.2941,-3.2959,-3.2983,-3.2978,-3.2978,-3.3088,-3.3048,-3.3093,-3.3165,-3.3198,-3.3212,-3.3224,-3.3265,-3.328,-3.3101,-3.3101,-3.3101,0,-3.3071,-3.3101,-3.3055,-3.3084,-3.3087,-3.3023,-3.3065,-3.306,-3.3051,-3.3055,-3.3021,-3.305,-3.3038,-3.3088,-3.3115,-3.3117,-3.3128,-3.3095,-3.3214,-3.3226,-3.3236,-3.3274,-3.3289,-3.3107,-3.3106,-3.3105,-3.3105,0,-3.3188,-3.3209,-3.3243,-3.3237,-3.3243,-3.3278,-3.3239,-3.3251,-3.322,-3.3198,-3.3236,-3.3219,-3.3226,-3.3235,-3.3205,-3.3281,-3.3263,-3.3222,-3.3163,-3.326,-3.3295,-3.3309,-3.3115,-3.3113,-3.3111,-3.311,0,0,-3.3357,-3.3325,-3.3338,-3.3335,-3.3316,-3.3332,-3.3365,-3.337,-3.3382,-3.3378,-3.3405,-3.3427,-3.3389,-3.339,-3.3358,-3.3387,-3.3477,-3.3343,-3.3342,-3.3369,-3.3561,-3.3593,-3.361,-3.345,-3.3452,-3.3454,-3.3562,0,-3.3464,-3.3517,-3.3477,-3.3538,-3.3557,-3.3497,-3.3525,-3.3518,-3.3498,-3.3513,-3.3491,-3.3507,-3.3456,-3.3456,-3.3482,-3.346,-3.3515,-3.3452,-3.3475,-3.3476,-3.3481,-3.3628,-3.3661,-3.3764,-3.3575,-3.3578,-3.3579,0,-3.3595,-3.3597,-3.366,-3.3638,-3.3644,-3.3671,-3.3673,-3.3687,-3.3677,-3.3661,-3.3662,-3.3624,-3.3655,-3.3596,-3.3638,-3.3597,-3.3604,-3.3595,-3.3598,-3.3599,-3.3535,-3.3635,-3.3796,-3.3812,-3.36,-3.3598,-3.3597,0,-3.3714,-3.3732,-3.3772,-3.3771,-3.3746,-3.3766,-3.3756,-3.3743,-3.375,-3.3752,-3.3756,-3.3762,-3.3765,-3.3771,-3.3736,-3.3696,-3.3784,-3.3721,-3.3772,-3.3773,-3.3794,-3.3794,-3.396,-3.3797,-3.3797,-3.3796,-3.3796,0,-3.3838,-3.3879,-3.3825,-3.385,-3.3894,-3.3848,-3.3894,-3.3878,-3.3867,-3.3888,-3.3837,-3.3858,-3.3809,-3.3825,-3.3798,-3.3838,-3.384,-3.3828,-3.3821,-3.3834,-3.3835,-3.3838,-3.3831,-3.3801,-3.38,-3.3799,-3.3798,0,-3.3978,-3.3944,-3.3984,-3.3957,-3.3951,-3.3985,-3.3962,-3.3984,-3.3961,-3.3989,-3.3992,-3.3957,-3.3973,-3.3938,-3.395,-3.3931,-3.3989,-3.3969,-3.3992,-3.3987,-3.404,-3.4036,-3.4215,-3.4237,-3.4059,-3.4061,-3.4062,0,-3.406,-3.409,-3.4066,-3.4077,-3.407,-3.4087,-3.4093,-3.4049,-3.4058,-3.4049,-3.4073,-3.4085,-3.4092,-3.4122,-3.4098,-3.4107,-3.4088,-3.415,-3.4089,-3.4101,-3.409,-3.4089,-3.4093,-3.4163,-3.4165,-3.4167,-3.4168,0,-3.421,-3.4191,-3.4201,-3.4206,-3.4215,-3.4217,-3.4215,-3.4226,-3.418,-3.4192,-3.4208,-3.4214,-3.4226,-3.424,-3.4243,-3.4234,-3.4194,-3.4188,-3.42,-3.4214,-3.4227,-3.4222,-3.4028,-3.4184,-3.4182,-3.4181,-3.418,-3.418,-3.4324,-3.4348,-3.4335,-3.4349,-3.4343,-3.4342,-3.4362,-3.4341,-3.4354,-3.436,-3.4333,-3.4356,-3.4346,-3.4346,-3.4341,-3.4359,-3.4331,-3.4349,-3.4353,-3.4359,-3.4368,-3.4223,-3.4359,-3.4359,-3.4358,-3.4358,-3.4357,0,-3.4472,-3.446,-3.4473,-3.4472,-3.4483,-3.4444,-3.444,-3.4452,-3.4472,-3.4466,-3.4474,-3.4493,-3.4506,-3.4483,-3.4492,-3.451,-3.4493,-3.4514,-3.4513,-3.4512,-3.4392,-3.4381,-3.4529,-3.4529,-3.4529,-3.4529,-3.4529,-3.4529,-3.455,-3.4589,-3.4569,-3.4605,-3.4594,-3.4615,-3.4616,-3.4616,-3.4611,-3.4634,-3.4645,-3.4629,-3.4616,-3.4624,-3.4634,-3.4627,-3.4633,-3.4662,-3.4649,-3.4537,-3.452,-3.4504,-3.4494,-3.4663,-3.4663,-3.4767,-3.4768,-3.4769]},{"header":{"parameterUnit":"m.s-1","parameterCategory":1,"la1":30.2991,"la2":30.254,"lo1":-89.0895,"lo2":-89.0444,"dy":0.0017,"dx":0.0017,"nx":28,"ny":28,"refTime":"2024-05-11T03:00:00:Z","depth":0,"parameterNumber":3,"parameterNumberName":"V-component_of_WINDS"},"data":[0,0,0,0,0,0,0,0,0,0,0,0,0,0,0,0,0,0,0,0,0,0,0,0,0,0,0,0,0,0,0,0,0,0,0,0,0,0,0,0,0,0,0,0,0,0,0,0,0,0,0,0,0,0,0,0,0,0,-3.5748,-3.5748,0,-3.5757,-3.5757,-3.5757,-3.5726,-3.5725,-3.5724,-3.5723,-3.573,-3.5731,-3.5733,0,0,0,0,0,0,0,0,0,0,0,0,0,-3.5703,-3.5704,-3.5748,-3.5748,-3.5748,-3.5757,-3.5757,-3.5757,-3.5726,-3.5725,-3.5724,-3.5723,-3.573,-3.5731,-3.5733,0,0,0,0,0,0,0,0,0,0,0,0,0,-3.5718,-3.5704,-3.5748,-3.5734,-3.5733,-3.5757,-3.5757,-3.5757,-3.5726,-3.5725,-3.5723,-3.5722,-3.573,-3.5731,-3.5733,-3.5771,0,0,-3.5738,-3.5738,0,0,0,0,0,0,0,0,-3.5717,-3.572,-3.5736,-3.5735,-3.5734,-3.5739,-3.5744,-3.5762,-3.5726,-3.5729,-3.5723,-3.5721,-3.5734,-3.5735,-3.574,-3.5771,-3.5771,-3.5738,-3.5739,-3.574,-3.574,0,0,0,0,0,0,0,-3.5716,-3.5719,-3.5752,-3.5736,-3.5735,-3.5727,-3.5727,-3.5747,-3.5739,-3.5728,-3.5726,-3.5728,-3.5733,-3.5739,-3.574,-3.5771,-3.5738,-3.5739,-3.574,-3.5741,-3.5834,-3.5835,0,0,0,0,0,0,-3.5717,-3.5719,-3.5751,-3.5752,-3.5722,-3.5728,-3.5729,-3.5739,-3.5739,-3.5738,-3.5729,-3.5726,-3.5737,-3.5738,-3.574,-3.5785,-3.574,-3.5741,-3.5742,-3.5833,-3.5834,-3.5836,0,0,0,0,0,0,-3.5717,-3.5721,-3.5751,-3.5735,-3.5738,-3.5731,-3.5741,-3.5739,-3.5745,-3.5739,-3.5737,-3.5736,-3.5735,-3.5738,-3.5763,-3.5785,-3.5742,-3.5743,-3.5831,-3.5833,-3.5835,-3.5874,0,0,0,0,0,0,-3.5715,-3.5721,-3.5735,-3.5735,-3.5739,-3.5775,-3.5743,-3.5741,-3.5748,-3.5744,-3.5745,-3.5744,-3.5735,-3.5761,-3.5765,-3.5786,-3.5744,-3.5829,-3.5832,-3.5834,-3.5871,-3.5878,-3.5883,0,0,0,0,0,-3.5714,-3.5746,-3.5736,-3.574,-3.5757,-3.5776,-3.5778,-3.5767,-3.5749,-3.5764,-3.576,-3.5744,-3.5782,-3.5764,-3.5768,-3.579,-3.5827,-3.5831,-3.5834,-3.5868,-3.5876,-3.5883,0,0,0,0,0,0,-3.5748,-3.5745,-3.5735,-3.5768,-3.5772,-3.5771,-3.5789,-3.5776,-3.5785,-3.5781,-3.5767,-3.5767,-3.5795,-3.5795,-3.5776,-3.5827,-3.5801,-3.5806,-3.5826,-3.5833,-3.5839,-3.5839,-3.5746,0,0,0,0,0,-3.5759,-3.5775,-3.5772,-3.5801,-3.5804,-3.5796,-3.5804,-3.5795,-3.5799,-3.5801,-3.5799,-3.5803,-3.5816,-3.5824,-3.5836,-3.5871,-3.587,-3.5888,-3.5894,-3.5899,-3.5903,-3.5921,-3.5929,-3.5847,-3.5847,-3.5847,0,0,-3.5783,-3.5783,-3.5794,-3.5808,-3.581,-3.5827,-3.5798,-3.5816,-3.5828,-3.5803,-3.5828,-3.5826,-3.583,-3.5861,-3.5874,-3.5861,-3.5925,-3.5903,-3.5907,-3.5908,-3.5925,-3.5933,-3.594,-3.5849,-3.5849,-3.5849,0,0,-3.5834,-3.5836,-3.5861,-3.5864,-3.5868,-3.5863,-3.5869,-3.5869,-3.5868,-3.5892,-3.5873,-3.5887,-3.5909,-3.5913,-3.5917,-3.597,-3.5955,-3.5974,-3.6006,-3.6024,-3.6031,-3.6036,-3.6055,-3.6062,-3.5978,-3.5978,-3.5978,0,-3.5863,-3.5887,-3.5875,-3.5895,-3.5901,-3.588,-3.5904,-3.5908,-3.5916,-3.592,-3.5906,-3.5934,-3.5935,-3.5966,-3.5979,-3.5983,-3.5989,-3.5974,-3.6031,-3.6036,-3.6041,-3.6059,-3.6066,-3.598,-3.598,-3.598,-3.598,0,-3.5922,-3.5939,-3.5959,-3.5967,-3.5976,-3.5998,-3.5989,-3.5999,-3.5989,-3.5985,-3.601,-3.601,-3.6021,-3.6028,-3.6018,-3.6058,-3.605,-3.6033,-3.6008,-3.6052,-3.6068,-3.6075,-3.5984,-3.5983,-3.5982,-3.5982,0,0,-3.5996,-3.5997,-3.6005,-3.6008,-3.6011,-3.6024,-3.6045,-3.6057,-3.6066,-3.6072,-3.6089,-3.6108,-3.6093,-3.6098,-3.6089,-3.6105,-3.6147,-3.6086,-3.6086,-3.6098,-3.619,-3.6203,-3.6211,-3.6137,-3.6138,-3.6139,-3.619,0,-3.6046,-3.6083,-3.6073,-3.6109,-3.6125,-3.6104,-3.6123,-3.6126,-3.6123,-3.6135,-3.6131,-3.6145,-3.6124,-3.6127,-3.6142,-3.6139,-3.6165,-3.6135,-3.6153,-3.6153,-3.6153,-3.622,-3.6233,-3.6282,-3.6197,-3.6198,-3.6198,0,-3.6111,-3.612,-3.6158,-3.6159,-3.6165,-3.6182,-3.6191,-3.6204,-3.6207,-3.6204,-3.621,-3.6197,-3.6217,-3.6191,-3.6219,-3.6198,-3.6205,-3.6204,-3.6206,-3.6208,-3.6179,-3.6224,-3.6297,-3.6304,-3.6209,-3.6208,-3.6207,0,-3.6161,-3.6183,-3.6208,-3.6212,-3.6214,-3.6226,-3.6227,-3.6229,-3.6237,-3.6245,-3.6249,-3.626,-3.6265,-3.6273,-3.6264,-3.6246,-3.6293,-3.6266,-3.629,-3.6291,-3.6302,-3.6301,-3.6377,-3.6305,-3.6305,-3.6305,-3.6305,0,-3.6219,-3.6243,-3.6231,-3.6247,-3.6274,-3.6261,-3.6287,-3.6286,-3.6288,-3.6303,-3.6286,-3.63,-3.6286,-3.6299,-3.6291,-3.6315,-3.6318,-3.6316,-3.6313,-3.6317,-3.6318,-3.6322,-3.6318,-3.6307,-3.6306,-3.6306,-3.6306,0,-3.628,-3.6273,-3.63,-3.6299,-3.6299,-3.6319,-3.6318,-3.6332,-3.6327,-3.6347,-3.635,-3.6343,-3.6357,-3.6348,-3.6362,-3.6357,-3.6389,-3.6382,-3.6388,-3.6386,-3.6411,-3.6409,-3.6493,-3.6504,-3.6424,-3.6425,-3.6426,0,-3.6318,-3.6336,-3.6337,-3.6347,-3.6349,-3.6364,-3.6371,-3.6359,-3.6368,-3.6373,-3.6387,-3.64,-3.641,-3.6434,-3.6429,-3.644,-3.6433,-3.6462,-3.6435,-3.6439,-3.6434,-3.6434,-3.6436,-3.6468,-3.6469,-3.6469,-3.647,0,-3.6386,-3.6382,-3.6394,-3.6405,-3.6414,-3.6422,-3.6428,-3.6437,-3.6425,-3.6435,-3.645,-3.6458,-3.6472,-3.6485,-3.6495,-3.6495,-3.6481,-3.6479,-3.6485,-3.649,-3.6493,-3.6492,-3.6404,-3.6477,-3.6476,-3.6476,-3.6475,-3.6475,-3.6437,-3.6452,-3.6456,-3.647,-3.6473,-3.648,-3.6493,-3.649,-3.6503,-3.6514,-3.6506,-3.6523,-3.6526,-3.6537,-3.6539,-3.6553,-3.6541,-3.655,-3.6552,-3.6555,-3.6559,-3.649,-3.6554,-3.6554,-3.6554,-3.6554,-3.6553,0,-3.6504,-3.6506,-3.6519,-3.6528,-3.6539,-3.6525,-3.6531,-3.6541,-3.6557,-3.6561,-3.6571,-3.6588,-3.6601,-3.6597,-3.6608,-3.662,-3.6613,-3.6623,-3.6622,-3.6623,-3.6568,-3.6562,-3.6628,-3.6628,-3.6628,-3.6628,-3.6628,-3.6628,-3.6541,-3.6567,-3.6562,-3.6589,-3.659,-3.6607,-3.6612,-3.6618,-3.6621,-3.6641,-3.6652,-3.6649,-3.665,-3.6661,-3.6672,-3.6671,-3.6676,-3.6688,-3.6684,-3.6634,-3.6626,-3.6619,-3.6613,-3.6689,-3.6689,-3.6738,-3.6738,-3.6739]}]]